Flag for Germany Weather past 2 weeks in Ilmenau, Thuringia, Germany

Now
72 °F

Thunderstorms. Broken clouds.


Feels Like: 69 °F
Forecast: 61 / 72 °F
Wind: 7 mph from West

Location: Erfurt-Bindersleben

Current Time: Jul 5, 2015 at 11:07:48 PM

Latest Report: Jul 5, 2015 at 10:20 PM


Visibility: N/A

Pressure: 29.98 "Hg

Humidity: 88%

Dew point: 68 °F

Location of IlmenauLocation

Historic Weather in Ilmenau — Graph

°F

Ilmenau temperature yesterday

Maximum temperature yesterday: 97 °F (at 3:20 PM)
Minimum temperature yesterday: 68 °F (at 3:20 AM)
Average temperature yesterday: 84 °F

Past Weeks' High & Low Weather Summary

 TemperatureHumidityPressure
High97 °F (Jul 4, 3:20 PM)100% (Jun 23, 1:20 AM)30.30 "Hg (Jun 23, 1:20 AM)
Low43 °F (Jun 21, 3:20 AM)22% (Jul 4, 4:50 PM)29.65 "Hg (Jun 23, 12:50 AM)
Average66 °F64%30.10 "Hg
* Reported Jun 20 9:20 PM — Jul 5 9:20 PM, Ilmenau, Weather by CustomWeather, © 2015

Note: Actual official high and low records may vary slightly from our data, if they occured in-between our weather recording intervals... More about our weather records

Advertising

Ilmenau weather history for previous 24 hours

 ConditionsComfort  
Time TempWeatherWind HumidityBarometerVisibility
9:20 PM
Sun, Jul 5
81 °FThunderstorms. Scattered clouds.6 mph54%29.89 "HgN/A
8:50 PM86 °FScattered showers. Scattered clouds.9 mph43%29.89 "HgN/A
8:20 PM86 °FScattered clouds.13 mph43%29.86 "HgN/A
7:50 PM88 °FScattered clouds.9 mph38%29.89 "HgN/A
7:20 PM90 °FScattered clouds.10 mph33%29.89 "HgN/A
6:50 PM91 °FScattered clouds.12 mph36%29.89 "HgN/A
6:20 PM93 °FPassing clouds.14 mph30%29.92 "HgN/A
5:50 PM93 °FPassing clouds.13 mph30%29.92 "HgN/A
5:20 PM95 °FPassing clouds.9 mph32%29.95 "HgN/A
4:50 PM95 °FPassing clouds.8 mph28%29.95 "HgN/A
4:20 PM95 °FPassing clouds.7 mph30%29.98 "HgN/A
3:50 PM93 °FPassing clouds.6 mph32%29.98 "HgN/A
3:20 PM93 °FPassing clouds.6 mph28%29.98 "HgN/A
2:50 PM93 °FPassing clouds.6 mph32%30.01 "HgN/A
2:20 PM91 °FScattered clouds.6 mph38%30.01 "HgN/A
1:50 PM90 °FScattered clouds.5 mph36%30.04 "HgN/A
1:20 PM90 °FScattered clouds.6 mph43%30.04 "HgN/A
12:50 PM88 °FPassing clouds.5 mph46%30.04 "HgN/A
12:20 PM88 °FSunny.3 mph40%30.07 "Hg10 mi
11:50 AM88 °FSunny.3 mph46%30.07 "Hg10 mi
11:20 AM86 °FSunny.3 mph46%30.07 "Hg10 mi
10:50 AM84 °FSunny.2 mph48%30.07 "Hg10 mi
10:20 AM84 °FSunny.1 mph45%30.09 "Hg10 mi
9:50 AM82 °FSunny.3 mph48%30.09 "Hg10 mi
9:20 AM81 °FSunny.3 mph51%30.09 "Hg10 mi
8:50 AM77 °FSunny.3 mph57%30.09 "Hg10 mi
8:20 AM73 °FSunny.6 mph69%30.09 "Hg10 mi
7:50 AM73 °FPassing clouds.7 mph74%30.09 "HgN/A
7:20 AM70 °FSunny.5 mph83%30.09 "Hg10 mi
6:50 AM70 °FSunny.5 mph78%30.09 "Hg10 mi
6:20 AM70 °FSunny.6 mph78%30.09 "Hg10 mi
5:50 AM68 °FClear.8 mph83%30.12 "Hg10 mi
5:20 AM68 °FClear.7 mph83%30.12 "Hg10 mi
4:50 AM66 °FClear.5 mph88%30.09 "Hg10 mi
4:20 AM68 °FClear.5 mph83%30.09 "Hg10 mi
3:50 AM68 °FClear.3 mph83%30.09 "Hg10 mi
3:20 AM68 °FClear.7 mph83%30.09 "Hg10 mi
2:50 AM68 °FClear.7 mph83%30.09 "Hg10 mi
2:20 AM72 °FClear.5 mph73%30.12 "Hg10 mi
1:50 AM73 °FClear.3 mph69%30.12 "Hg10 mi
1:20 AM75 °FClear.7 mph61%30.12 "Hg10 mi
12:50 AM75 °FThundershowers. Partly cloudy.6 mph57%30.12 "HgN/A
12:20 AM73 °FThundershowers. Passing clouds.13 mph69%30.12 "HgN/A
11:50 PM
Sat, Jul 4
72 °FThunderstorms. Passing clouds.8 mph73%30.15 "HgN/A
11:20 PM79 °FThunderstorms. Partly cloudy.9 mph58%30.15 "Hg2 mi
Weather by CustomWeather, © 2015

See weather overviewHow to use our weather pages